Wind_Speed
38 43 43 42 41 37 37 34 33 32 32 31 30 30 30 32 31 28 27 27 25 24 20 18 17 15 18 17 23 22 19 19
23 21 43 43 40 39 37 35 33 31 32 31 30 29 29 31 29 27 27 25 23 22 20 17 16 15 14 15 20 15 18 17
9 24 39 43 41 37 35 34 32 32 32 31 30 29 30 30 29 28 25 24 22 20 18 16 14 14 13 13 16 12 13 14
22 19 29 35 37 37 35 34 32 33 32 31 32 29 29 29 28 25 23 21 20 18 17 15 13 10 8 10 11 10 11 11
26 28 31 34 35 37 36 36 35 32 31 30 28 27 27 29 27 24 22 21 21 18 17 11 7 9 9 10 13 9 8 9
34 40 40 38 39 37 36 39 37 28 30 22 23 25 24 26 25 23 22 21 20 15 14 12 10 6 6 8 9 6 7 7
34 39 40 38 39 37 35 36 39 31 25 20 23 22 24 23 22 21 20 20 17 15 12 10 8 8 8 7 8 5 8 5
33 35 36 39 38 35 35 34 29 22 24 21 18 22 22 21 21 21 18 18 16 11 13 9 9 6 6 6 7 7 4 7
32 31 32 31 30 28 28 31 17 22 23 19 19 20 23 19 20 19 20 21 14 13 12 10 10 6 5 6 7 7 6 3
30 31 31 29 29 33 35 27 24 23 23 20 20 14 18 22 21 22 19 20 17 18 15 14 10 9 7 8 9 5 3 7
32 34 34 31 28 26 27 27 25 22 20 20 16 16 15 21 22 20 20 19 22 19 15 14 13 12 12 12 9 7 5 8
39 38 38 38 33 28 29 25 20 20 23 18 18 15 15 21 20 22 22 21 18 16 16 15 14 11 7 13 11 9 8 10
29 32 37 35 31 32 33 30 24 29 25 20 23 22 21 24 22 23 22 19 19 19 18 13 12 11 7 4 7 12 14 13
25 34 37 38 36 33 29 29 22 24 27 28 27 27 26 25 22 26 22 20 21 20 20 16 11 11 6 2 1 1 11 12
29 32 37 38 36 32 24 24 27 30 33 33 30 27 27 25 23 26 24 24 26 25 21 18 13 15 12 4 1 3 1 3
32 34 41 39 37 30 27 25 22 27 33 32 28 29 29 27 27 26 25 25 28 27 23 20 14 16 12 9 6 3 3 2
34 33 33 36 36 35 30 31 32 29 30 29 27 29 27 27 29 26 27 30 27 26 25 23 17 17 15 9 8 9 11 5
35 34 35 37 38 38 36 33 32 31 29 31 30 30 27 27 29 26 28 29 26 26 26 26 21 17 11 9 7 4 4 3
37 36 31 39 40 39 41 36 38 35 34 34 34 33 30 31 31 31 28 29 28 29 31 29 23 16 11 10 6 3 2 6
37 37 37 35 40 40 41 36 37 39 37 37 38 38 35 34 35 32 28 31 29 31 31 24 20 13 13 11 11 11 13 13
Wind_Direction
359 172 166 158 159 153 149 146 143 143 141 142 141 140 141 143 147 142 137 132 129 128 124 116 105 94 95 76 75 112 94 92
304 329 163 153 149 148 145 144 145 145 142 141 141 139 140 145 146 142 139 135 133 131 125 119 109 101 83 72 65 107 98 87
70 319 113 135 141 142 143 144 145 143 140 141 140 138 140 143 143 143 141 139 137 132 132 118 107 100 77 81 66 92 84 76
149 109 117 129 136 143 144 140 138 138 136 138 138 138 139 139 139 141 143 138 134 136 120 119 117 106 97 94 68 88 86 80
148 147 148 146 147 144 140 137 138 135 135 135 137 142 143 143 138 145 144 142 138 135 127 130 111 134 123 119 85 86 84 76
134 143 151 150 144 141 137 137 133 131 135 131 143 141 145 137 140 147 147 146 142 141 134 135 132 137 115 122 100 72 82 81
137 140 144 145 138 132 131 133 132 133 146 154 156 151 154 141 147 147 149 148 154 152 150 158 144 127 114 99 92 96 90 98
147 140 138 141 137 139 140 142 148 146 153 161 149 164 149 149 155 155 153 169 172 168 161 147 153 151 147 140 120 134 82 88
148 148 143 142 142 145 154 151 158 150 146 151 179 167 158 159 164 168 176 179 179 160 157 162 162 156 117 126 140 150 134 90
136 148 153 145 153 157 151 169 152 149 142 182 184 159 175 174 179 182 184 178 182 171 166 162 177 185 170 165 166 182 173 154
143 146 152 140 132 148 160 159 149 155 193 197 185 175 188 200 191 182 181 181 179 179 182 183 188 190 185 188 201 211 202 185
150 151 152 154 158 164 154 156 168 192 197 188 182 206 206 213 189 188 184 182 181 182 185 192 195 190 170 208 208 210 203 202
154 161 165 169 165 163 171 180 188 186 191 201 223 232 223 212 194 192 186 191 187 190 191 182 168 189 215 229 232 220 213 219
165 170 175 182 183 186 179 189 202 212 213 216 218 220 215 200 200 192 196 188 192 195 191 190 198 202 175 189 34 64 214 221
178 179 179 183 183 187 201 211 213 213 215 216 217 218 214 199 199 199 198 193 197 199 198 199 190 195 215 182 110 198 341 279
184 182 179 180 188 204 211 206 199 206 212 215 214 213 216 207 200 207 203 198 199 198 197 203 197 191 186 207 213 192 162 308
192 195 197 201 204 206 214 209 205 207 212 209 210 213 216 210 200 207 200 204 204 201 197 205 206 177 194 189 212 226 228 188
200 203 203 204 206 210 216 212 204 202 205 205 206 210 213 208 204 201 207 204 205 204 201 202 198 195 200 206 201 182 194 199
199 206 205 203 207 209 215 214 209 202 205 202 201 203 211 212 210 208 210 209 203 205 199 194 190 199 205 197 200 180 260 276
202 208 215 211 212 214 215 213 210 210 210 209 208 212 217 220 214 214 219 209 204 196 191 192 186 199 189 190 200 218 244 261
Height
764 768 769 777 786 792 796 803 809 811 814 820 825 828 831 835 839 843 846 848 851 854 857 859 861 862 862 865 867 865 866 867
760 744 767 777 785 792 798 803 808 812 816 823 828 830 833 837 841 845 847 850 853 854 857 861 863 864 865 865 867 867 868 868
767 757 754 773 785 795 801 804 810 815 819 824 829 832 835 839 843 846 850 852 855 856 860 862 865 867 868 868 869 870 869 869
771 777 774 779 787 795 802 804 813 819 822 827 829 832 837 840 844 848 851 854 856 861 861 864 866 867 869 870 869 871 870 871
771 777 783 784 795 797 801 803 814 821 823 831 832 837 840 842 843 849 853 856 859 861 862 865 865 869 870 871 871 871 871 872
778 784 790 796 797 799 800 804 809 821 826 831 836 838 845 843 846 851 854 857 860 862 863 865 867 870 871 871 872 872 872 873
780 785 790 795 793 799 805 809 809 822 830 834 838 839 845 843 849 852 856 859 861 862 863 866 869 870 871 872 873 875 873 875
781 786 788 790 795 802 808 816 821 824 830 834 834 843 843 846 849 853 856 860 862 861 864 866 869 871 872 872 874 876 875 875
780 784 790 795 799 807 813 817 823 826 829 834 840 843 842 845 849 851 854 859 860 862 865 866 869 871 872 872 874 875 876 875
784 789 793 798 803 807 812 821 822 825 827 836 840 839 844 846 848 851 855 857 859 861 864 866 869 870 871 872 874 874 874 875
789 791 795 800 803 812 815 817 821 827 833 836 835 838 842 846 848 851 853 856 857 860 863 865 867 869 870 871 871 871 872 873
789 793 797 801 807 815 818 823 824 827 830 829 831 837 840 844 846 848 852 853 856 858 861 864 865 867 869 869 870 870 870 872
789 793 798 803 808 815 818 818 820 822 824 829 833 836 840 843 843 846 849 851 853 857 860 862 864 865 866 868 868 868 869 870
792 795 798 803 807 811 814 816 818 823 826 830 832 836 838 839 840 842 845 848 852 855 856 859 862 863 865 866 866 867 867 868
787 789 794 799 801 810 812 816 817 820 822 825 827 830 832 834 836 838 840 842 846 850 853 857 858 860 862 862 865 867 865 865
785 789 791 793 799 803 807 807 810 813 816 819 822 824 826 830 831 833 834 837 841 844 848 853 855 856 859 860 859 860 865 867
782 785 788 790 794 796 800 802 805 808 813 815 818 820 823 826 828 829 832 834 837 840 843 847 850 853 855 855 857 859 861 862
777 781 783 785 787 790 793 796 799 803 807 809 813 815 819 822 824 826 830 831 834 835 839 841 846 849 851 852 854 856 857 858
768 771 773 776 779 781 785 788 792 795 799 803 806 810 813 815 818 822 825 827 828 831 834 835 839 844 847 849 850 852 855 855
761 765 768 771 773 776 780 784 786 789 791 795 799 802 805 808 813 817 821 823 824 827 827 832 833 839 843 845 846 847 850 852